{"data":{"norad_id":43929,"intl_designator":"2019-002H","name":"IRIDIUM 171","alt_names":[],"object_type":"PAYLOAD","status":"ACTIVE","operator":null,"country":"US","launch_date":"2019-01-11","launch_site_code":"AFWTR","launch_vehicle":null,"mission":null,"orbit_class":"UNKNOWN","rcs_meters":null,"size_class":null,"mass_kg":null,"dimensions":null,"purposes":["comms"],"wikipedia_slug":null,"has_3d_model":false,"image_url":null,"decayed_at":null,"tle_current":{"epoch":"2026-09-19T23:26:30.914016Z","epoch_age_seconds":60781,"freshness":"FRESH","line1":"1 43929U 19002H   26262.97674669  .00000103  00000+0  29838-4 0  9998","line2":"2 43929  86.3982 314.2858 0002172  93.4339 266.7105 14.34218167402548","mean_motion":14.34218167,"eccentricity":0.0002172,"inclination_deg":86.3982,"raan_deg":314.2858,"arg_perigee_deg":93.4339,"mean_anomaly_deg":266.7105,"bstar":2.9838e-5,"rev_number":40254,"period_min":100.40313483214,"perigee_km":776.11152695543,"apogee_km":779.22000767756,"semimajor_km":7155.8027673165,"source":"CELESTRAK","updated_at":"2026-09-20T09:00:36.356374Z"}}}